Time,TemperatureF,DewpointF,PressureIn,WindDirection,WindDirectionDegrees,WindSpeedMPH,WindSpeedGustMPH,Humidity,HourlyPrecipIn,Conditions,Clouds,dailyrainin,SoftwareType,DateUTC
2013-03-25 00:01:00,3.6,-0.1,30.28,South,182,2.0,2.0,84,0.00,,,0.00,LWC V2.10 B1813,2013-03-25 08:01:00,
2013-03-25 00:06:00,3.4,-0.3,30.28,South,182,1.0,2.0,84,0.00,,,0.00,LWC V2.10 B1813,2013-03-25 08:06:00,
2013-03-25 00:11:00,3.3,-0.4,30.28,South,183,1.0,1.0,84,0.00,,,0.00,LWC V2.10 B1813,2013-03-25 08:11:00,
2013-03-25 00:16:00,3.3,-0.4,30.28,South,183,1.0,2.0,84,0.00,,,0.00,LWC V2.10 B1813,2013-03-25 08:16:00,
2013-03-25 00:21:00,3.2,-0.5,30.28,South,184,1.0,2.0,84,0.00,,,0.00,LWC V2.10 B1813,2013-03-25 08:21:00,
2013-03-25 00:26:00,3.2,-0.5,30.28,South,183,0.0,1.0,84,0.00,,,0.00,LWC V2.10 B1813,2013-03-25 08:26:00,
2013-03-25 00:31:00,3.1,-0.6,30.28,South,182,1.0,2.0,84,0.00,,,0.00,LWC V2.10 B1813,2013-03-25 08:31:00,
2013-03-25 00:36:00,3.1,-0.6,30.28,South,183,1.0,2.0,84,0.00,,,0.00,LWC V2.10 B1813,2013-03-25 08:36:00,
2013-03-25 00:41:00,3.1,-0.6,30.28,South,182,2.0,2.0,84,0.00,,,0.00,LWC V2.10 B1813,2013-03-25 08:41:00,
2013-03-25 00:46:00,3.0,-0.7,30.28,South,183,1.0,2.0,84,0.00,,,0.00,LWC V2.10 B1813,2013-03-25 08:46:00,
2013-03-25 00:51:00,3.0,-0.7,30.28,South,182,0.0,0.0,84,0.00,,,0.00,LWC V2.10 B1813,2013-03-25 08:51:00,
2013-03-25 00:56:00,2.9,-0.8,30.27,South,182,1.0,2.0,84,0.00,,,0.00,LWC V2.10 B1813,2013-03-25 08:56:00,
2013-03-25 01:01:00,2.9,-0.8,30.27,South,183,1.0,2.0,84,0.00,,,0.00,LWC V2.10 B1813,2013-03-25 09:01:00,
2013-03-25 01:06:00,2.8,-0.9,30.27,South,185,2.0,3.0,84,0.00,,,0.00,LWC V2.10 B1813,2013-03-25 09:06:00,
2013-03-25 01:11:00,2.8,-0.9,30.27,South,180,2.0,4.0,84,0.00,,,0.00,LWC V2.10 B1813,2013-03-25 09:11:00,
2013-03-25 01:16:00,2.8,-0.9,30.27,South,177,0.0,3.0,84,0.00,,,0.00,LWC V2.10 B1813,2013-03-25 09:16:00,
2013-03-25 01:21:00,2.8,-0.9,30.27,South,176,1.0,2.0,84,0.00,,,0.00,LWC V2.10 B1813,2013-03-25 09:21:00,
2013-03-25 01:26:00,2.7,-1.0,30.27,South,176,0.0,2.0,84,0.00,,,0.00,LWC V2.10 B1813,2013-03-25 09:26:00,
2013-03-25 01:31:00,2.7,-1.0,30.27,South,177,1.0,2.0,84,0.00,,,0.00,LWC V2.10 B1813,2013-03-25 09:31:00,
2013-03-25 01:36:00,2.7,-1.0,30.27,South,178,0.0,1.0,84,0.00,,,0.00,LWC V2.10 B1813,2013-03-25 09:36:00,
2013-03-25 01:41:00,2.7,-1.0,30.27,South,177,0.0,1.0,84,0.00,,,0.00,LWC V2.10 B1813,2013-03-25 09:41:00,
2013-03-25 01:46:00,2.7,-1.0,30.26,South,177,0.0,0.0,84,0.00,,,0.00,LWC V2.10 B1813,2013-03-25 09:46:00,
2013-03-25 01:51:00,2.8,-0.9,30.26,South,177,0.0,0.0,84,0.00,,,0.00,LWC V2.10 B1813,2013-03-25 09:51:00,
2013-03-25 01:56:00,2.7,-1.0,30.26,South,176,0.0,0.0,84,0.00,,,0.00,LWC V2.10 B1813,2013-03-25 09:56:00,
2013-03-25 02:01:00,2.7,-1.3,30.26,South,176,0.0,1.0,83,0.00,,,0.00,LWC V2.10 B1813,2013-03-25 10:01:00,
2013-03-25 02:06:00,2.6,-1.4,30.26,South,177,1.0,2.0,83,0.00,,,0.00,LWC V2.10 B1813,2013-03-25 10:06:00,
2013-03-25 02:11:00,2.4,-1.6,30.26,South,173,1.0,3.0,83,0.00,,,0.00,LWC V2.10 B1813,2013-03-25 10:11:00,
2013-03-25 02:16:00,2.4,-1.6,30.26,South,172,2.0,3.0,83,0.00,,,0.00,LWC V2.10 B1813,2013-03-25 10:16:00,
2013-03-25 02:21:00,2.3,-1.7,30.26,South,171,0.0,2.0,83,0.00,,,0.00,LWC V2.10 B1813,2013-03-25 10:21:00,
2013-03-25 02:26:00,2.2,-1.8,30.26,SSE,166,1.0,3.0,83,0.00,,,0.00,LWC V2.10 B1813,2013-03-25 10:26:00,
2013-03-25 02:31:00,2.1,-1.6,30.26,SSE,167,1.0,2.0,84,0.00,,,0.00,LWC V2.10 B1813,2013-03-25 10:31:00,
2013-03-25 02:36:00,2.0,-1.7,30.26,SSE,167,1.0,2.0,84,0.00,,,0.00,LWC V2.10 B1813,2013-03-25 10:36:00,
2013-03-25 02:41:00,2.0,-1.7,30.26,SSE,167,0.0,0.0,84,0.00,,,0.00,LWC V2.10 B1813,2013-03-25 10:41:00,
2013-03-25 02:46:00,2.0,-1.7,30.26,SSE,168,0.0,0.0,84,0.00,,,0.00,LWC V2.10 B1813,2013-03-25 10:46:00,
2013-03-25 02:51:00,2.1,-1.6,30.26,SSE,167,0.0,0.0,84,0.00,,,0.00,LWC V2.10 B1813,2013-03-25 10:51:00,
2013-03-25 02:56:00,2.2,-1.5,30.25,SSE,166,0.0,0.0,84,0.00,,,0.00,LWC V2.10 B1813,2013-03-25 10:56:00,
2013-03-25 03:01:00,2.2,-1.8,30.25,SSE,166,0.0,0.0,83,0.00,,,0.00,LWC V2.10 B1813,2013-03-25 11:01:00,
2013-03-25 03:06:00,2.2,-1.8,30.25,SSE,167,0.0,0.0,83,0.00,,,0.00,LWC V2.10 B1813,2013-03-25 11:06:00,
2013-03-25 03:11:00,2.2,-1.8,30.25,SSE,165,0.0,0.0,83,0.00,,,0.00,LWC V2.10 B1813,2013-03-25 11:11:00,
2013-03-25 03:16:00,2.2,-1.8,30.25,SSE,167,0.0,0.0,83,0.00,,,0.00,LWC V2.10 B1813,2013-03-25 11:16:00,
2013-03-25 03:21:00,2.2,-1.8,30.25,SSE,167,0.0,0.0,83,0.00,,,0.00,LWC V2.10 B1813,2013-03-25 11:21:00,
2013-03-25 03:26:00,2.2,-1.8,30.25,SSE,167,0.0,1.0,83,0.00,,,0.00,LWC V2.10 B1813,2013-03-25 11:26:00,
2013-03-25 03:31:00,2.2,-1.8,30.25,SSE,165,0.0,0.0,83,0.00,,,0.00,LWC V2.10 B1813,2013-03-25 11:31:00,
2013-03-25 03:36:00,2.1,-1.9,30.25,SSE,167,0.0,0.0,83,0.00,,,0.00,LWC V2.10 B1813,2013-03-25 11:36:00,
2013-03-25 03:41:00,2.1,-1.9,30.25,SSE,167,0.0,0.0,83,0.00,,,0.00,LWC V2.10 B1813,2013-03-25 11:41:00,
2013-03-25 03:46:00,2.0,-2.0,30.24,SSE,167,0.0,0.0,83,0.00,,,0.00,LWC V2.10 B1813,2013-03-25 11:46:00,
2013-03-25 03:51:00,2.0,-2.0,30.25,SSE,167,0.0,0.0,83,0.00,,,0.00,LWC V2.10 B1813,2013-03-25 11:51:00,
2013-03-25 03:56:00,2.0,-2.0,30.25,SSE,167,0.0,0.0,83,0.00,,,0.00,LWC V2.10 B1813,2013-03-25 11:56:00,
2013-03-25 04:01:00,1.9,-2.0,30.24,SSE,167,0.0,0.0,83,0.00,,,0.00,LWC V2.10 B1813,2013-03-25 12:01:00,
2013-03-25 04:06:00,1.8,-2.1,30.24,SSE,167,0.0,0.0,83,0.00,,,0.00,LWC V2.10 B1813,2013-03-25 12:06:00,
2013-03-25 04:11:00,1.8,-2.1,30.24,SSE,167,0.0,0.0,83,0.00,,,0.00,LWC V2.10 B1813,2013-03-25 12:11:00,
2013-03-25 04:16:00,1.7,-2.2,30.24,SSE,165,0.0,0.0,83,0.00,,,0.00,LWC V2.10 B1813,2013-03-25 12:16:00,
2013-03-25 04:21:00,1.7,-2.2,30.24,SSE,167,0.0,0.0,83,0.00,,,0.00,LWC V2.10 B1813,2013-03-25 12:21:00,
2013-03-25 04:26:00,1.6,-2.6,30.24,SSE,167,0.0,0.0,82,0.00,,,0.00,LWC V2.10 B1813,2013-03-25 12:26:00,
2013-03-25 04:31:00,1.5,-2.4,30.24,SSE,166,0.0,0.0,83,0.00,,,0.00,LWC V2.10 B1813,2013-03-25 12:31:00,
2013-03-25 04:36:00,1.4,-2.5,30.24,SSE,167,0.0,1.0,83,0.00,,,0.00,LWC V2.10 B1813,2013-03-25 12:36:00,
2013-03-25 04:41:00,1.3,-2.6,30.23,SSE,167,1.0,1.0,83,0.00,,,0.00,LWC V2.10 B1813,2013-03-25 12:41:00,
2013-03-25 04:46:00,1.3,-2.6,30.24,SSE,164,1.0,1.0,83,0.00,,,0.00,LWC V2.10 B1813,2013-03-25 12:46:00,
2013-03-25 04:51:00,1.3,-2.6,30.23,SSE,167,0.0,0.0,83,0.00,,,0.00,LWC V2.10 B1813,2013-03-25 12:51:00,
2013-03-25 04:56:00,1.3,-2.6,30.24,SSE,166,0.0,0.0,83,0.00,,,0.00,LWC V2.10 B1813,2013-03-25 12:56:00,
2013-03-25 05:01:00,1.4,-2.5,30.23,SSE,166,0.0,0.0,83,0.00,,,0.00,LWC V2.10 B1813,2013-03-25 13:01:00,
2013-03-25 05:06:00,1.4,-2.5,30.23,SSE,167,0.0,0.0,83,0.00,,,0.00,LWC V2.10 B1813,2013-03-25 13:06:00,
2013-03-25 05:11:00,1.4,-2.5,30.23,SSE,165,0.0,0.0,83,0.00,,,0.00,LWC V2.10 B1813,2013-03-25 13:11:00,
2013-03-25 05:16:00,1.4,-2.5,30.23,SSE,167,0.0,0.0,83,0.00,,,0.00,LWC V2.10 B1813,2013-03-25 13:16:00,
2013-03-25 05:21:00,1.4,-2.5,30.23,SSE,167,0.0,0.0,83,0.00,,,0.00,LWC V2.10 B1813,2013-03-25 13:21:00,
2013-03-25 05:26:00,1.5,-2.4,30.23,SSE,165,0.0,0.0,83,0.00,,,0.00,LWC V2.10 B1813,2013-03-25 13:26:00,
2013-03-25 05:31:00,1.6,-2.3,30.23,SSE,165,0.0,0.0,83,0.00,,,0.00,LWC V2.10 B1813,2013-03-25 13:31:00,
2013-03-25 05:36:00,1.7,-2.2,30.23,SSE,167,0.0,0.0,83,0.00,,,0.00,LWC V2.10 B1813,2013-03-25 13:36:00,
2013-03-25 05:41:00,1.8,-2.1,30.22,SSE,165,0.0,0.0,83,0.00,,,0.00,LWC V2.10 B1813,2013-03-25 13:41:00,
2013-03-25 05:46:00,1.9,-2.0,30.22,SSE,167,0.0,0.0,83,0.00,,,0.00,LWC V2.10 B1813,2013-03-25 13:46:00,
2013-03-25 05:51:00,2.0,-2.0,30.21,SSE,167,0.0,0.0,83,0.00,,,0.00,LWC V2.10 B1813,2013-03-25 13:51:00,
2013-03-25 05:56:00,2.0,-2.0,30.22,SSE,165,0.0,0.0,83,0.00,,,0.00,LWC V2.10 B1813,2013-03-25 13:56:00,
2013-03-25 06:01:00,2.0,-2.0,30.22,SSE,165,0.0,0.0,83,0.00,,,0.00,LWC V2.10 B1813,2013-03-25 14:01:00,
2013-03-25 06:06:00,2.0,-2.2,30.22,SSE,166,2.0,2.0,82,0.00,,,0.00,LWC V2.10 B1813,2013-03-25 14:06:00,
2013-03-25 06:11:00,1.9,-2.3,30.22,SSE,167,2.0,2.0,82,0.00,,,0.00,LWC V2.10 B1813,2013-03-25 14:11:00,
2013-03-25 06:16:00,1.6,-2.6,30.22,SSE,167,0.0,1.0,82,0.00,,,0.00,LWC V2.10 B1813,2013-03-25 14:16:00,
2013-03-25 06:21:00,1.4,-2.8,30.21,SSE,167,0.0,0.0,82,0.00,,,0.00,LWC V2.10 B1813,2013-03-25 14:21:00,
2013-03-25 06:26:00,1.1,-3.1,30.21,SSE,167,0.0,0.0,82,0.00,,,0.00,LWC V2.10 B1813,2013-03-25 14:26:00,
2013-03-25 06:31:00,0.9,-3.0,30.21,SSE,165,0.0,0.0,83,0.00,,,0.00,LWC V2.10 B1813,2013-03-25 14:31:00,
2013-03-25 06:36:00,0.9,-3.0,30.21,SSE,167,0.0,0.0,83,0.00,,,0.00,LWC V2.10 B1813,2013-03-25 14:36:00,
2013-03-25 06:41:00,0.8,-3.1,30.21,SSE,165,0.0,0.0,83,0.00,,,0.00,LWC V2.10 B1813,2013-03-25 14:41:00,
2013-03-25 06:46:00,0.8,-3.1,30.20,SSE,167,0.0,0.0,83,0.00,,,0.00,LWC V2.10 B1813,2013-03-25 14:46:00,
2013-03-25 06:51:00,0.9,-3.0,30.20,SSE,167,0.0,0.0,83,0.00,,,0.00,LWC V2.10 B1813,2013-03-25 14:51:00,
2013-03-25 06:56:00,0.9,-3.0,30.20,SSE,165,0.0,0.0,83,0.00,,,0.00,LWC V2.10 B1813,2013-03-25 14:56:00,
2013-03-25 07:01:00,1.0,-2.9,30.20,SSE,166,0.0,1.0,83,0.00,,,0.00,LWC V2.10 B1813,2013-03-25 15:01:00,
2013-03-25 07:06:00,1.2,-2.7,30.19,South,169,0.0,1.0,83,0.00,,,0.00,LWC V2.10 B1813,2013-03-25 15:06:00,
2013-03-25 07:11:00,1.3,-2.6,30.20,SSE,168,0.0,1.0,83,0.00,,,0.00,LWC V2.10 B1813,2013-03-25 15:11:00,
2013-03-25 07:16:00,1.4,-2.5,30.20,SSE,168,0.0,0.0,83,0.00,,,0.00,LWC V2.10 B1813,2013-03-25 15:16:00,
2013-03-25 07:21:00,1.4,-2.8,30.19,SSE,167,0.0,1.0,82,0.00,,,0.00,LWC V2.10 B1813,2013-03-25 15:21:00,
2013-03-25 07:26:00,1.4,-2.8,30.19,SSE,168,1.0,1.0,82,0.00,,,0.00,LWC V2.10 B1813,2013-03-25 15:26:00,
2013-03-25 07:31:00,1.4,-2.8,30.19,SSE,168,0.0,1.0,82,0.00,,,0.00,LWC V2.10 B1813,2013-03-25 15:31:00,
2013-03-25 07:36:00,1.4,-2.8,30.19,SSE,167,0.0,0.0,82,0.00,,,0.00,LWC V2.10 B1813,2013-03-25 15:36:00,
2013-03-25 07:41:00,1.3,-2.9,30.19,SSE,167,0.0,0.0,82,0.00,,,0.00,LWC V2.10 B1813,2013-03-25 15:41:00,
2013-03-25 07:46:00,1.2,-3.0,30.19,SSE,167,0.0,0.0,82,0.00,,,0.00,LWC V2.10 B1813,2013-03-25 15:46:00,
2013-03-25 07:51:00,1.0,-3.2,30.19,SSE,168,0.0,0.0,82,0.00,,,0.00,LWC V2.10 B1813,2013-03-25 15:51:00,
2013-03-25 07:56:00,0.8,-3.4,30.19,SSE,167,0.0,1.0,82,0.00,,,0.00,LWC V2.10 B1813,2013-03-25 15:56:00,
2013-03-25 08:01:00,0.6,-3.6,30.19,SSE,168,0.0,0.0,82,0.00,,,0.00,LWC V2.10 B1813,2013-03-25 16:01:00,
2013-03-25 08:06:00,0.5,-3.4,30.19,SSE,167,0.0,1.0,83,0.00,,,0.00,LWC V2.10 B1813,2013-03-25 16:06:00,
2013-03-25 08:11:00,0.4,-3.5,30.19,SSE,167,0.0,1.0,83,0.00,,,0.00,LWC V2.10 B1813,2013-03-25 16:11:00,
2013-03-25 08:16:00,0.3,-3.6,30.19,SSE,168,0.0,0.0,83,0.00,,,0.00,LWC V2.10 B1813,2013-03-25 16:16:00,
2013-03-25 08:21:00,0.3,-3.6,30.19,South,169,0.0,0.0,83,0.00,,,0.00,LWC V2.10 B1813,2013-03-25 16:21:00,
2013-03-25 08:26:00,0.4,-3.5,30.18,SSE,168,0.0,0.0,83,0.00,,,0.00,LWC V2.10 B1813,2013-03-25 16:26:00,
2013-03-25 08:31:00,0.5,-3.4,30.18,South,170,0.0,0.0,83,0.00,,,0.00,LWC V2.10 B1813,2013-03-25 16:31:00,
2013-03-25 08:36:00,0.6,-3.3,30.18,SSE,167,0.0,0.0,83,0.00,,,0.00,LWC V2.10 B1813,2013-03-25 16:36:00,
2013-03-25 08:41:00,0.8,-3.1,30.18,SSE,167,0.0,0.0,83,0.00,,,0.00,LWC V2.10 B1813,2013-03-25 16:41:00,
2013-03-25 08:46:00,0.9,-3.0,30.18,SSE,168,0.0,0.0,83,0.00,,,0.00,LWC V2.10 B1813,2013-03-25 16:46:00,
2013-03-25 08:51:00,1.0,-2.9,30.18,SSE,168,0.0,0.0,83,0.00,,,0.00,LWC V2.10 B1813,2013-03-25 16:51:00,
2013-03-25 08:56:00,1.1,-2.8,30.17,SSE,168,0.0,0.0,83,0.00,,,0.00,LWC V2.10 B1813,2013-03-25 16:56:00,
2013-03-25 09:01:00,1.3,-2.6,30.17,SSE,168,1.0,1.0,83,0.00,,,0.00,LWC V2.10 B1813,2013-03-25 17:01:00,
2013-03-25 09:06:00,1.4,-2.8,30.17,SSE,168,0.0,1.0,82,0.00,,,0.00,LWC V2.10 B1813,2013-03-25 17:06:00,
2013-03-25 09:11:00,1.4,-2.8,30.17,South,169,0.0,0.0,82,0.00,,,0.00,LWC V2.10 B1813,2013-03-25 17:11:00,
2013-03-25 09:16:00,1.5,-2.7,30.17,SSE,167,0.0,0.0,82,0.00,,,0.00,LWC V2.10 B1813,2013-03-25 17:16:00,
2013-03-25 09:21:00,1.5,-2.7,30.17,SSE,167,0.0,0.0,82,0.00,,,0.00,LWC V2.10 B1813,2013-03-25 17:21:00,
2013-03-25 09:26:00,1.5,-2.7,30.17,SSE,168,0.0,0.0,82,0.00,,,0.00,LWC V2.10 B1813,2013-03-25 17:26:00,
2013-03-25 09:31:00,1.7,-2.8,30.17,SSE,167,0.0,0.0,81,0.00,,,0.00,LWC V2.10 B1813,2013-03-25 17:31:00,
2013-03-25 09:36:00,1.8,-2.4,30.17,SSE,168,1.0,2.0,82,0.00,,,0.00,LWC V2.10 B1813,2013-03-25 17:36:00,
2013-03-25 09:41:00,1.9,-2.6,30.17,SSE,168,0.0,1.0,81,0.00,,,0.00,LWC V2.10 B1813,2013-03-25 17:41:00,
2013-03-25 09:46:00,1.9,-2.6,30.17,South,169,0.0,1.0,81,0.00,,,0.00,LWC V2.10 B1813,2013-03-25 17:46:00,
2013-03-25 09:51:00,2.0,-2.5,30.17,SSE,168,0.0,0.0,81,0.00,,,0.00,LWC V2.10 B1813,2013-03-25 17:51:00,
2013-03-25 09:56:00,2.2,-2.3,30.16,SSE,168,0.0,1.0,81,0.00,,,0.00,LWC V2.10 B1813,2013-03-25 17:56:00,
2013-03-25 10:01:00,2.3,-2.2,30.16,South,169,1.0,1.0,81,0.00,,,0.00,LWC V2.10 B1813,2013-03-25 18:01:00,
2013-03-25 10:06:00,2.2,-2.3,30.16,SSE,168,0.0,0.0,81,0.00,,,0.00,LWC V2.10 B1813,2013-03-25 18:06:00,
2013-03-25 10:11:00,2.3,-2.2,30.16,SSE,168,0.0,1.0,81,0.00,,,0.00,LWC V2.10 B1813,2013-03-25 18:11:00,
2013-03-25 10:16:00,2.2,-2.3,30.16,SSE,167,0.0,0.0,81,0.00,,,0.00,LWC V2.10 B1813,2013-03-25 18:16:00,
2013-03-25 10:21:00,2.2,-2.3,30.15,SSE,168,0.0,2.0,81,0.00,,,0.00,LWC V2.10 B1813,2013-03-25 18:21:00,
2013-03-25 10:26:00,2.1,-2.4,30.15,SSE,167,0.0,2.0,81,0.00,,,0.00,LWC V2.10 B1813,2013-03-25 18:26:00,
2013-03-25 10:31:00,2.2,-2.3,30.15,SSE,165,1.0,2.0,81,0.00,,,0.00,LWC V2.10 B1813,2013-03-25 18:31:00,
2013-03-25 10:36:00,2.2,-2.3,30.15,SSE,166,0.0,1.0,81,0.00,,,0.00,LWC V2.10 B1813,2013-03-25 18:36:00,
2013-03-25 10:45:00,2.3,-2.2,30.15,SSE,168,1.0,2.0,81,0.00,,,0.00,LWC V2.10 B1813,2013-03-25 18:45:00,
2013-03-25 10:50:00,2.4,-2.1,30.15,South,171,1.0,3.0,81,0.00,,,0.00,LWC V2.10 B1813,2013-03-25 18:50:00,
2013-03-25 10:55:00,2.4,-2.1,30.15,South,185,1.0,3.0,81,0.00,,,0.00,LWC V2.10 B1813,2013-03-25 18:55:00,
2013-03-25 11:00:00,2.6,-1.9,30.15,South,184,0.0,2.0,81,0.00,,,0.00,LWC V2.10 B1813,2013-03-25 19:00:00,
2013-03-25 11:05:00,2.7,-1.8,30.15,South,184,1.0,2.0,81,0.00,,,0.00,LWC V2.10 B1813,2013-03-25 19:05:00,
2013-03-25 11:10:00,2.8,-1.7,30.15,South,183,0.0,3.0,81,0.00,,,0.00,LWC V2.10 B1813,2013-03-25 19:10:00,
2013-03-25 11:15:00,3.0,-1.5,30.15,South,184,0.0,1.0,81,0.00,,,0.00,LWC V2.10 B1813,2013-03-25 19:15:00,
2013-03-25 11:20:00,3.2,-1.6,30.15,South,182,2.0,3.0,80,0.00,,,0.00,LWC V2.10 B1813,2013-03-25 19:20:00,
2013-03-25 11:25:00,3.3,-1.7,30.15,South,184,0.0,2.0,79,0.00,,,0.00,LWC V2.10 B1813,2013-03-25 19:25:00,
2013-03-25 11:30:00,3.3,-1.7,30.15,South,184,1.0,2.0,79,0.00,,,0.00,LWC V2.10 B1813,2013-03-25 19:30:00,
2013-03-25 11:35:00,3.3,-1.7,30.15,South,184,1.0,3.0,79,0.00,,,0.00,LWC V2.10 B1813,2013-03-25 19:35:00,
2013-03-25 11:40:00,3.2,-1.8,30.15,South,183,1.0,2.0,79,0.00,,,0.00,LWC V2.10 B1813,2013-03-25 19:40:00,
2013-03-25 11:45:00,3.2,-1.8,30.15,South,183,1.0,2.0,79,0.00,,,0.00,LWC V2.10 B1813,2013-03-25 19:45:00,
2013-03-25 11:50:00,3.3,-1.7,30.15,South,174,3.0,3.0,79,0.00,,,0.00,LWC V2.10 B1813,2013-03-25 19:50:00,
2013-03-25 11:55:00,3.4,-1.6,30.15,SSE,165,1.0,3.0,79,0.00,,,0.00,LWC V2.10 B1813,2013-03-25 19:55:00,
2013-03-25 12:00:00,3.7,-1.3,30.15,SSE,159,0.0,0.0,79,0.00,,,0.00,LWC V2.10 B1813,2013-03-25 20:00:00,
2013-03-25 12:05:00,4.2,-1.1,30.15,SSE,163,0.0,3.0,78,0.00,,,0.00,LWC V2.10 B1813,2013-03-25 20:05:00,
2013-03-25 12:10:00,4.5,-0.8,30.15,SSE,162,2.0,3.0,78,0.00,,,0.00,LWC V2.10 B1813,2013-03-25 20:10:00,
2013-03-25 12:15:00,4.2,-1.7,30.15,SE,130,3.0,4.0,76,0.00,,,0.00,LWC V2.10 B1813,2013-03-25 20:15:00,
2013-03-25 12:20:00,3.6,-2.2,30.15,SE,125,2.0,4.0,76,0.00,,,0.00,LWC V2.10 B1813,2013-03-25 20:20:00,
2013-03-25 12:25:00,3.5,-1.5,30.15,SSE,150,1.0,3.0,79,0.00,,,0.00,LWC V2.10 B1813,2013-03-25 20:25:00,
2013-03-25 12:30:00,3.7,-1.1,30.15,SSE,150,2.0,6.0,80,0.00,,,0.00,LWC V2.10 B1813,2013-03-25 20:30:00,
2013-03-25 12:35:00,3.6,-1.2,30.15,SE,136,2.0,4.0,80,0.00,,,0.00,LWC V2.10 B1813,2013-03-25 20:35:00,
2013-03-25 12:40:00,3.5,-1.3,30.15,SSE,148,3.0,4.0,80,0.00,,,0.00,LWC V2.10 B1813,2013-03-25 20:40:00,
2013-03-25 12:45:00,3.3,-1.5,30.15,ESE,117,3.0,4.0,80,0.00,,,0.00,LWC V2.10 B1813,2013-03-25 20:45:00,
2013-03-25 12:50:00,3.2,-1.3,30.15,SE,132,5.0,5.0,81,0.00,,,0.00,LWC V2.10 B1813,2013-03-25 20:50:00,
2013-03-25 12:55:00,3.3,-1.2,30.15,SE,139,3.0,7.0,81,0.00,,,0.00,LWC V2.10 B1813,2013-03-25 20:55:00,
2013-03-25 13:00:00,3.2,-1.3,30.15,ESE,121,3.0,4.0,81,0.00,,,0.00,LWC V2.10 B1813,2013-03-25 21:00:00,
2013-03-25 13:05:00,3.3,-1.2,30.15,SE,133,2.0,5.0,81,0.00,,,0.00,LWC V2.10 B1813,2013-03-25 21:05:00,
2013-03-25 13:10:00,3.4,-1.1,30.15,SE,144,1.0,4.0,81,0.00,,,0.00,LWC V2.10 B1813,2013-03-25 21:10:00,
2013-03-25 13:15:00,3.6,-1.2,30.15,SSE,167,0.0,4.0,80,0.00,,,0.00,LWC V2.10 B1813,2013-03-25 21:15:00,
2013-03-25 13:20:00,3.8,-1.0,30.15,ESE,115,1.0,3.0,80,0.00,,,0.00,LWC V2.10 B1813,2013-03-25 21:20:00,
2013-03-25 13:25:00,3.9,-0.9,30.15,SSE,168,2.0,4.0,80,0.00,,,0.00,LWC V2.10 B1813,2013-03-25 21:25:00,
2013-03-25 13:30:00,4.1,-0.9,30.15,SE,132,4.0,5.0,79,0.00,,,0.00,LWC V2.10 B1813,2013-03-25 21:30:00,
2013-03-25 13:35:00,4.0,-1.3,30.14,SE,142,1.0,4.0,78,0.00,,,0.00,LWC V2.10 B1813,2013-03-25 21:35:00,
2013-03-25 13:40:00,4.0,-1.0,30.15,SE,134,2.0,4.0,79,0.00,,,0.00,LWC V2.10 B1813,2013-03-25 21:40:00,
2013-03-25 13:45:00,4.1,-0.9,30.15,SSE,165,3.0,4.0,79,0.00,,,0.00,LWC V2.10 B1813,2013-03-25 21:45:00,
2013-03-25 13:50:00,4.2,-0.8,30.15,South,173,1.0,4.0,79,0.00,,,0.00,LWC V2.10 B1813,2013-03-25 21:50:00,
2013-03-25 13:55:00,4.6,-0.2,30.15,SE,128,2.0,4.0,80,0.00,,,0.00,LWC V2.10 B1813,2013-03-25 21:55:00,
2013-03-25 14:00:00,4.9,0.1,30.15,SSE,163,0.0,4.0,80,0.00,,,0.00,LWC V2.10 B1813,2013-03-25 22:00:00,
2013-03-25 14:05:00,5.3,0.5,30.15,SSE,154,2.0,3.0,80,0.00,,,0.00,LWC V2.10 B1813,2013-03-25 22:05:00,
2013-03-25 14:10:00,5.3,0.2,30.15,South,169,3.0,4.0,79,0.00,,,0.00,LWC V2.10 B1813,2013-03-25 22:10:00,
2013-03-25 14:15:00,5.1,-0.2,30.15,SSE,167,2.0,6.0,78,0.00,,,0.00,LWC V2.10 B1813,2013-03-25 22:15:00,
2013-03-25 14:20:00,5.0,-0.1,30.15,SSE,152,2.0,5.0,79,0.00,,,0.00,LWC V2.10 B1813,2013-03-25 22:20:00,
2013-03-25 14:25:00,5.0,-0.1,30.15,SSE,154,3.0,5.0,79,0.00,,,0.00,LWC V2.10 B1813,2013-03-25 22:25:00,
2013-03-25 14:30:00,5.0,-0.1,30.15,ESE,113,3.0,4.0,79,0.00,,,0.00,LWC V2.10 B1813,2013-03-25 22:30:00,
2013-03-25 14:35:00,5.2,0.1,30.16,ESE,121,7.0,7.0,79,0.00,,,0.00,LWC V2.10 B1813,2013-03-25 22:35:00,
2013-03-25 14:40:00,5.0,-0.1,30.16,SSE,155,1.0,6.0,79,0.00,,,0.00,LWC V2.10 B1813,2013-03-25 22:40:00,
2013-03-25 14:45:00,4.9,-0.2,30.15,ESE,110,3.0,5.0,79,0.00,,,0.00,LWC V2.10 B1813,2013-03-25 22:45:00,
2013-03-25 14:50:00,4.7,-0.1,30.15,SE,128,3.0,4.0,80,0.00,,,0.00,LWC V2.10 B1813,2013-03-25 22:50:00,
2013-03-25 14:55:00,5.0,0.2,30.15,SE,142,3.0,4.0,80,0.00,,,0.00,LWC V2.10 B1813,2013-03-25 22:55:00,
2013-03-25 15:00:00,5.1,0.3,30.15,SE,134,3.0,5.0,80,0.00,,,0.00,LWC V2.10 B1813,2013-03-25 23:00:00,
2013-03-25 15:05:00,4.9,0.1,30.16,ESE,109,3.0,5.0,80,0.00,,,0.00,LWC V2.10 B1813,2013-03-25 23:05:00,
2013-03-25 15:10:00,4.7,0.2,30.15,ESE,107,1.0,4.0,81,0.00,,,0.00,LWC V2.10 B1813,2013-03-25 23:10:00,
2013-03-25 15:15:00,4.9,0.4,30.15,ESE,122,2.0,4.0,81,0.00,,,0.00,LWC V2.10 B1813,2013-03-25 23:15:00,
2013-03-25 15:20:00,5.0,0.5,30.15,East,93,5.0,5.0,81,0.00,,,0.00,LWC V2.10 B1813,2013-03-25 23:20:00,
2013-03-25 15:25:00,5.0,3.0,30.16,ENE,74,2.0,4.0,91,0.00,,,0.00,LWC V2.10 B1813,2013-03-25 23:25:00,
2013-03-25 15:30:00,5.1,0.6,30.16,ESE,121,3.0,7.0,81,0.00,,,0.00,LWC V2.10 B1813,2013-03-25 23:30:00,
2013-03-25 15:35:00,5.3,1.0,30.16,SE,130,2.0,5.0,82,0.00,,,0.00,LWC V2.10 B1813,2013-03-25 23:35:00,
2013-03-25 15:40:00,5.5,1.2,30.16,East,90,5.0,6.0,82,0.00,,,0.00,LWC V2.10 B1813,2013-03-25 23:40:00,
2013-03-25 15:45:00,5.6,1.3,30.15,East,91,2.0,2.0,82,0.00,,,0.00,LWC V2.10 B1813,2013-03-25 23:45:00,
2013-03-25 15:50:00,5.8,1.5,30.16,East,88,0.0,0.0,82,0.00,,,0.00,LWC V2.10 B1813,2013-03-25 23:50:00,
2013-03-25 15:55:00,6.1,1.5,30.16,SW,236,1.0,7.0,81,0.00,,,0.00,LWC V2.10 B1813,2013-03-25 23:55:00,
2013-03-25 16:00:00,6.8,2.0,30.16,WSW,257,0.0,5.0,80,0.00,,,0.00,LWC V2.10 B1813,2013-03-26 00:00:00,
2013-03-25 16:05:00,7.5,2.4,30.16,WNW,295,1.0,5.0,79,0.00,,,0.00,LWC V2.10 B1813,2013-03-26 00:05:00,
2013-03-25 16:10:00,8.4,3.0,30.16,SW,236,6.0,7.0,78,0.00,,,0.00,LWC V2.10 B1813,2013-03-26 00:10:00,
2013-03-25 16:15:00,9.1,2.8,30.16,SW,227,5.0,8.0,75,0.00,,,0.00,LWC V2.10 B1813,2013-03-26 00:15:00,
2013-03-25 16:20:00,9.4,2.5,30.16,WSW,237,2.0,5.0,73,0.00,,,0.00,LWC V2.10 B1813,2013-03-26 00:20:00,
2013-03-25 16:25:00,9.4,2.5,30.16,WSW,244,3.0,10.0,73,0.00,,,0.00,LWC V2.10 B1813,2013-03-26 00:25:00,
2013-03-25 16:30:00,9.4,2.5,30.16,WSW,238,5.0,8.0,73,0.00,,,0.00,LWC V2.10 B1813,2013-03-26 00:30:00,
2013-03-25 16:35:00,9.1,1.9,30.17,SW,235,3.0,8.0,72,0.00,,,0.00,LWC V2.10 B1813,2013-03-26 00:35:00,
2013-03-25 16:40:00,8.8,1.6,30.17,WSW,243,3.0,4.0,72,0.00,,,0.00,LWC V2.10 B1813,2013-03-26 00:40:00,
2013-03-25 16:45:00,8.5,1.4,30.17,SW,233,4.0,10.0,72,0.00,,,0.00,LWC V2.10 B1813,2013-03-26 00:45:00,
2013-03-25 16:50:00,8.2,0.8,30.18,North,0,3.0,5.0,71,0.00,,,0.00,LWC V2.10 B1813,2013-03-26 00:50:00,
2013-03-25 16:55:00,8.1,1.3,30.18,WSW,242,5.0,8.0,73,0.00,,,0.00,LWC V2.10 B1813,2013-03-26 00:55:00,
2013-03-25 17:00:00,8.2,0.8,30.18,WSW,237,1.0,8.0,71,0.00,,,0.00,LWC V2.10 B1813,2013-03-26 01:00:00,
2013-03-25 17:05:00,8.3,1.5,30.18,West,265,6.0,7.0,73,0.00,,,0.00,LWC V2.10 B1813,2013-03-26 01:05:00,
2013-03-25 17:10:00,8.5,1.7,30.18,WNW,293,1.0,6.0,73,0.00,,,0.00,LWC V2.10 B1813,2013-03-26 01:10:00,
2013-03-25 17:15:00,8.6,1.8,30.18,West,259,6.0,9.0,73,0.00,,,0.00,LWC V2.10 B1813,2013-03-26 01:15:00,
2013-03-25 17:20:00,8.6,1.8,30.18,North,0,4.0,9.0,73,0.00,,,0.00,LWC V2.10 B1813,2013-03-26 01:20:00,
2013-03-25 17:25:00,8.7,1.6,30.18,North,0,1.0,12.0,72,0.00,,,0.00,LWC V2.10 B1813,2013-03-26 01:25:00,
2013-03-25 17:30:00,8.7,1.3,30.18,West,281,3.0,8.0,71,0.00,,,0.00,LWC V2.10 B1813,2013-03-26 01:30:00,
2013-03-25 17:35:00,8.5,1.1,30.19,NW,304,7.0,10.0,71,0.00,,,0.00,LWC V2.10 B1813,2013-03-26 01:35:00,
2013-03-25 17:40:00,8.3,0.9,30.18,West,267,2.0,8.0,71,0.00,,,0.00,LWC V2.10 B1813,2013-03-26 01:40:00,
2013-03-25 17:45:00,8.1,0.7,30.19,West,261,1.0,9.0,71,0.00,,,0.00,LWC V2.10 B1813,2013-03-26 01:45:00,
2013-03-25 17:50:00,8.0,1.2,30.19,West,270,5.0,10.0,73,0.00,,,0.00,LWC V2.10 B1813,2013-03-26 01:50:00,
2013-03-25 17:55:00,7.9,1.1,30.18,WSW,241,4.0,9.0,73,0.00,,,0.00,LWC V2.10 B1813,2013-03-26 01:55:00,
2013-03-25 18:00:00,7.7,0.9,30.18,West,279,2.0,13.0,73,0.00,,,0.00,LWC V2.10 B1813,2013-03-26 02:00:00,
2013-03-25 18:05:00,7.5,0.4,30.19,North,0,5.0,10.0,72,0.00,,,0.00,LWC V2.10 B1813,2013-03-26 02:05:00,
2013-03-25 18:10:00,7.3,0.2,30.18,WSW,246,4.0,11.0,72,0.00,,,0.00,LWC V2.10 B1813,2013-03-26 02:10:00,
2013-03-25 18:15:00,7.1,0.3,30.18,West,259,4.0,9.0,73,0.00,,,0.00,LWC V2.10 B1813,2013-03-26 02:15:00,
2013-03-25 18:20:00,6.8,0.0,30.19,North,0,7.0,14.0,73,0.00,,,0.00,LWC V2.10 B1813,2013-03-26 02:20:00,
2013-03-25 18:25:00,6.5,-0.3,30.19,North,0,8.0,15.0,73,0.00,,,0.00,LWC V2.10 B1813,2013-03-26 02:25:00,
2013-03-25 18:30:00,6.2,-0.9,30.19,SW,226,2.0,7.0,72,0.00,,,0.00,LWC V2.10 B1813,2013-03-26 02:30:00,
2013-03-25 18:35:00,6.0,-0.8,30.19,West,271,5.0,12.0,73,0.00,,,0.00,LWC V2.10 B1813,2013-03-26 02:35:00,
2013-03-25 18:40:00,5.9,-0.9,30.20,SW,233,7.0,8.0,73,0.00,,,0.00,LWC V2.10 B1813,2013-03-26 02:40:00,
2013-03-25 18:45:00,5.8,-1.2,30.20,WSW,242,6.0,12.0,72,0.00,,,0.00,LWC V2.10 B1813,2013-03-26 02:45:00,
2013-03-25 18:50:00,5.5,-1.5,30.20,West,267,4.0,10.0,72,0.00,,,0.00,LWC V2.10 B1813,2013-03-26 02:50:00,
2013-03-25 18:55:00,5.3,-1.7,30.20,North,0,6.0,11.0,72,0.00,,,0.00,LWC V2.10 B1813,2013-03-26 02:55:00,
2013-03-25 19:00:00,5.1,-1.9,30.20,NW,309,4.0,10.0,72,0.00,,,0.00,LWC V2.10 B1813,2013-03-26 03:00:00,
2013-03-25 19:05:00,4.8,-2.2,30.20,WSW,238,3.0,11.0,72,0.00,,,0.00,LWC V2.10 B1813,2013-03-26 03:05:00,
2013-03-25 19:10:00,4.5,-2.2,30.20,West,269,8.0,14.0,73,0.00,,,0.00,LWC V2.10 B1813,2013-03-26 03:10:00,
2013-03-25 19:15:00,4.2,-2.2,30.20,SW,223,2.0,11.0,74,0.00,,,0.00,LWC V2.10 B1813,2013-03-26 03:15:00,
2013-03-25 19:20:00,4.0,-2.7,30.21,WSW,249,3.0,7.0,73,0.00,,,0.00,LWC V2.10 B1813,2013-03-26 03:20:00,
2013-03-25 19:25:00,3.7,-2.7,30.21,North,0,4.0,8.0,74,0.00,,,0.00,LWC V2.10 B1813,2013-03-26 03:25:00,
2013-03-25 19:30:00,3.4,-3.0,30.22,SW,221,4.0,12.0,74,0.00,,,0.00,LWC V2.10 B1813,2013-03-26 03:30:00,
2013-03-25 19:35:00,3.2,-3.2,30.22,WSW,250,2.0,8.0,74,0.00,,,0.00,LWC V2.10 B1813,2013-03-26 03:35:00,
2013-03-25 19:40:00,2.9,-3.2,30.22,West,265,5.0,8.0,75,0.00,,,0.00,LWC V2.10 B1813,2013-03-26 03:40:00,
2013-03-25 19:45:00,2.7,-3.4,30.22,SW,236,3.0,6.0,75,0.00,,,0.00,LWC V2.10 B1813,2013-03-26 03:45:00,
2013-03-25 19:50:00,2.5,-3.6,30.22,West,267,11.0,11.0,75,0.00,,,0.00,LWC V2.10 B1813,2013-03-26 03:50:00,
2013-03-25 19:55:00,2.2,-3.9,30.22,WNW,288,4.0,10.0,75,0.00,,,0.00,LWC V2.10 B1813,2013-03-26 03:55:00,
2013-03-25 20:00:00,2.0,-3.8,30.22,WSW,238,4.0,8.0,76,0.00,,,0.00,LWC V2.10 B1813,2013-03-26 04:00:00,
2013-03-25 20:05:00,1.9,-3.9,30.23,WSW,239,4.0,7.0,76,0.00,,,0.00,LWC V2.10 B1813,2013-03-26 04:05:00,
2013-03-25 20:10:00,1.7,-3.8,30.23,WSW,254,2.0,8.0,77,0.00,,,0.00,LWC V2.10 B1813,2013-03-26 04:10:00,
2013-03-25 20:11:00,1.7,-3.8,30.23,WSW,246,5.0,10.0,77,0.00,,,0.00,LWC V2.10 B1813,2013-03-26 04:11:00,
2013-03-25 20:16:00,1.5,-4.0,30.23,West,271,4.0,13.0,77,0.00,,,0.00,LWC V2.10 B1813,2013-03-26 04:16:00,
2013-03-25 20:21:00,1.4,-3.8,30.23,SW,234,3.0,9.0,78,0.00,,,0.00,LWC V2.10 B1813,2013-03-26 04:21:00,
2013-03-25 20:26:00,1.3,-3.9,30.23,West,266,3.0,13.0,78,0.00,,,0.00,LWC V2.10 B1813,2013-03-26 04:26:00,
2013-03-25 20:31:00,1.3,-3.9,30.23,West,264,5.0,11.0,78,0.00,,,0.00,LWC V2.10 B1813,2013-03-26 04:31:00,
2013-03-25 20:36:00,1.3,-3.9,30.23,WSW,254,9.0,15.0,78,0.00,,,0.00,LWC V2.10 B1813,2013-03-26 04:36:00,
2013-03-25 20:41:00,1.3,-3.9,30.23,WSW,250,2.0,11.0,78,0.00,,,0.00,LWC V2.10 B1813,2013-03-26 04:41:00,
2013-03-25 20:46:00,1.3,-3.9,30.23,West,281,11.0,11.0,78,0.00,,,0.00,LWC V2.10 B1813,2013-03-26 04:46:00,
2013-03-25 20:51:00,1.2,-4.0,30.23,WNW,289,8.0,12.0,78,0.00,,,0.00,LWC V2.10 B1813,2013-03-26 04:51:00,
2013-03-25 20:56:00,1.1,-4.1,30.23,WNW,302,5.0,10.0,78,0.00,,,0.00,LWC V2.10 B1813,2013-03-26 04:56:00,
2013-03-25 21:01:00,1.1,-4.1,30.23,West,263,6.0,8.0,78,0.00,,,0.00,LWC V2.10 B1813,2013-03-26 05:01:00,
2013-03-25 21:06:00,1.0,-4.2,30.23,WNW,286,2.0,10.0,78,0.00,,,0.00,LWC V2.10 B1813,2013-03-26 05:06:00,
2013-03-25 21:11:00,0.9,-4.3,30.23,North,0,10.0,11.0,78,0.00,,,0.00,LWC V2.10 B1813,2013-03-26 05:11:00,
2013-03-25 21:16:00,0.8,-4.2,30.23,West,260,3.0,12.0,79,0.00,,,0.00,LWC V2.10 B1813,2013-03-26 05:16:00,
2013-03-25 21:21:00,0.8,-4.2,30.24,West,274,4.0,10.0,79,0.00,,,0.00,LWC V2.10 B1813,2013-03-26 05:21:00,
2013-03-25 21:26:00,0.6,-4.4,30.25,SW,234,3.0,12.0,79,0.00,,,0.00,LWC V2.10 B1813,2013-03-26 05:26:00,
2013-03-25 21:31:00,0.6,-4.4,30.25,West,263,5.0,7.0,79,0.00,,,0.00,LWC V2.10 B1813,2013-03-26 05:31:00,
2013-03-25 21:36:00,0.5,-4.4,30.25,WSW,250,3.0,8.0,79,0.00,,,0.00,LWC V2.10 B1813,2013-03-26 05:36:00,
2013-03-25 21:41:00,0.5,-4.4,30.25,WNW,296,3.0,11.0,79,0.00,,,0.00,LWC V2.10 B1813,2013-03-26 05:41:00,
2013-03-25 21:46:00,0.5,-4.4,30.25,WSW,242,3.0,10.0,79,0.00,,,0.00,LWC V2.10 B1813,2013-03-26 05:46:00,
2013-03-25 21:51:00,0.5,-4.4,30.26,North,0,4.0,9.0,79,0.00,,,0.00,LWC V2.10 B1813,2013-03-26 05:51:00,
2013-03-25 21:56:00,0.5,-4.4,30.26,WSW,248,1.0,6.0,79,0.00,,,0.00,LWC V2.10 B1813,2013-03-26 05:56:00,
2013-03-25 22:01:00,0.5,-4.4,30.26,SW,234,2.0,5.0,79,0.00,,,0.00,LWC V2.10 B1813,2013-03-26 06:01:00,
2013-03-25 22:06:00,0.5,-4.4,30.26,WSW,245,3.0,9.0,79,0.00,,,0.00,LWC V2.10 B1813,2013-03-26 06:06:00,
2013-03-25 22:11:00,0.6,-4.4,30.26,West,259,4.0,9.0,79,0.00,,,0.00,LWC V2.10 B1813,2013-03-26 06:11:00,
2013-03-25 22:16:00,0.6,-4.6,30.27,West,260,4.0,11.0,78,0.00,,,0.00,LWC V2.10 B1813,2013-03-26 06:16:00,
2013-03-25 22:21:00,0.6,-4.6,30.27,WSW,243,4.0,5.0,78,0.00,,,0.00,LWC V2.10 B1813,2013-03-26 06:21:00,
2013-03-25 22:26:00,0.6,-4.6,30.27,WSW,248,2.0,8.0,78,0.00,,,0.00,LWC V2.10 B1813,2013-03-26 06:26:00,
2013-03-25 22:31:00,0.6,-4.6,30.27,West,268,7.0,13.0,78,0.00,,,0.00,LWC V2.10 B1813,2013-03-26 06:31:00,
2013-03-25 22:36:00,0.6,-4.6,30.27,West,268,4.0,9.0,78,0.00,,,0.00,LWC V2.10 B1813,2013-03-26 06:36:00,
2013-03-25 22:41:00,0.6,-4.6,30.27,West,265,4.0,9.0,78,0.00,,,0.00,LWC V2.10 B1813,2013-03-26 06:41:00,
2013-03-25 22:46:00,0.6,-4.6,30.27,WNW,289,1.0,9.0,78,0.00,,,0.00,LWC V2.10 B1813,2013-03-26 06:46:00,
2013-03-25 22:51:00,0.5,-4.7,30.27,WNW,283,5.0,9.0,78,0.00,,,0.00,LWC V2.10 B1813,2013-03-26 06:51:00,
2013-03-25 22:57:00,0.4,-4.8,30.28,WSW,238,3.0,8.0,78,0.00,,,0.00,LWC V2.10 B1813,2013-03-26 06:57:00,
2013-03-25 23:02:00,0.2,-5.0,30.28,West,273,5.0,12.0,78,0.00,,,0.00,LWC V2.10 B1813,2013-03-26 07:02:00,
2013-03-25 23:07:00,0.1,-5.4,30.28,West,261,4.0,7.0,77,0.00,,,0.00,LWC V2.10 B1813,2013-03-26 07:07:00,
2013-03-25 23:12:00,0.0,-5.5,30.28,WSW,252,6.0,8.0,77,0.00,,,0.00,LWC V2.10 B1813,2013-03-26 07:12:00,
2013-03-25 23:17:00,0.0,-5.2,30.29,West,264,7.0,10.0,78,0.00,,,0.00,LWC V2.10 B1813,2013-03-26 07:17:00,
2013-03-25 23:22:00,0.0,-5.2,30.29,West,264,7.0,12.0,78,0.00,,,0.00,LWC V2.10 B1813,2013-03-26 07:22:00,
2013-03-25 23:27:00,-0.1,-5.3,30.29,WSW,250,2.0,8.0,78,0.00,,,0.00,LWC V2.10 B1813,2013-03-26 07:27:00,
2013-03-25 23:32:00,-0.1,-5.3,30.29,WSW,242,3.0,10.0,78,0.00,,,0.00,LWC V2.10 B1813,2013-03-26 07:32:00,
2013-03-25 23:37:00,-0.3,-5.5,30.29,WSW,253,6.0,8.0,78,0.00,,,0.00,LWC V2.10 B1813,2013-03-26 07:37:00,
2013-03-25 23:42:00,-0.4,-5.3,30.29,WSW,238,2.0,11.0,79,0.00,,,0.00,LWC V2.10 B1813,2013-03-26 07:42:00,
2013-03-25 23:47:00,-0.5,-5.4,30.29,West,259,3.0,4.0,79,0.00,,,0.00,LWC V2.10 B1813,2013-03-26 07:47:00,
2013-03-25 23:52:00,-0.6,-5.5,30.28,North,0,6.0,12.0,79,0.00,,,0.00,LWC V2.10 B1813,2013-03-26 07:52:00,
2013-03-25 23:57:00,-0.8,-6.0,30.29,WSW,237,7.0,11.0,78,0.00,,,0.00,LWC V2.10 B1813,2013-03-26 07:57:00,